User: anonymous   Login
Location: *
(0.1100°N, 5.5000°E)
Time: 12:04:13
(UTC+00:00)
Language:

deb Kosmos-1375 - Orbit

View from above orbital plane
View from above orbital plane
View from above satellite
View from above satellite

Ground track
Ground track

The orbit data is extracted from the following two-line orbital elements,

1 16382U 82055W   23333.45308581  .00008637  00000-0  32972-2 0  9997
2 16382  65.7444 343.1848 0026676 349.9622 179.8077 14.30970369956398
Epoch (UTC): 29 November 2023 10:52:26
Eccentricity: 0.0026676
inclination: 65.7444°
perigee height: 769 km
apogee height: 807 km
right ascension of ascending node: 343.1848°
argument of perigee: 349.9622°
revolutions per day: 14.30970369
mean anomaly at epoch: 179.8077°
orbit number at epoch: 95639

The dashed part of the orbit path shows where the satellite is in the earth's shadow,  

DLR